Weather History for Al Udeid, Qatar

Change the Weather History Date:

Saturday, February 1, 2014

  Actual Average Record
Temperature  
Mean Temperature 64 °F -  
Max Temperature 71 °F - - ()
Min Temperature 57 °F - - ()
Degree Days  
Heating Degree Days 1    
Growing Degree Days 14 (Base 50)    
Moisture  
Dew Point 49 °F    
Average Humidity 61    
Maximum Humidity 100    
Minimum Humidity 35    
Precipitation  
Precipitation 0.00 in - - ()
Sea Level Pressure  
Sea Level Pressure 30.03 in    
Wind  
Wind Speed 9 mph ()    
Max Wind Speed 21 mph    
Max Gust Speed 23 mph    
Visibility 6.2 miles    
Events      
T = Trace of Precipitation, MM = Missing Value Source: Averaged Metar Reports

Daily Weather History Graph

Daily Weather History Graph

Search for Another Location

Airport:

Trip Planner

Search our weather history database for the weather conditions in past years. The results will help you decide how hot, cold, wet, or windy it might be!

Date:

Astronomy

Feb. 01, 2014 Rise Set
Actual Time 6:17 AM AST 5:19 PM AST
Civil Twilight 5:53 AM AST 5:43 PM AST
Nautical Twilight 5:26 AM AST 6:10 PM AST
Astronomical Twilight 4:59 AM AST 6:37 PM AST
Moon 7:06 AM AST (2/1) 7:08 PM AST (2/1)
Length of Visible Light 11h 49m
Length of Day
11h 01m
Waxing Crescent, 3% of the Moon is Illuminated
Feb 1
Waxing Crescent
Feb 6
First Quarter
Feb 15
Full
Feb 22
Last Quarter
Mar 1
New

Hourly Weather History & Observations

Time (AST) Temp. Dew Point Humidity Pressure Visibility Wind Dir Wind Speed Gust Speed Precip Events Conditions
12:58 AM 60.6 °F 60.6 °F 100% 30.02 in 6.2 mi WNW 5.8 mph - N/A   Partly Cloudy
1:58 AM 60.1 °F 53.6 °F 79% 30.01 in 6.2 mi NW 8.1 mph - N/A   Partly Cloudy
2:58 AM 60.3 °F 53.6 °F 79% 30.02 in 6.2 mi NW 10.4 mph - N/A   Clear
3:58 AM 59.4 °F 53.6 °F 81% 30.01 in 6.2 mi NW 8.1 mph - N/A   Clear
4:58 AM 58.8 °F 58.8 °F 100% 30.02 in 6.2 mi WNW 6.9 mph - N/A   Clear
5:58 AM 57.9 °F 57.9 °F 100% 30.04 in 6.2 mi WNW 6.9 mph - N/A   Clear
6:58 AM 58.3 °F 58.3 °F 100% 30.06 in 6.2 mi NNW 9.2 mph - N/A   Clear
7:58 AM 61.2 °F 54.1 °F 78% 30.07 in 6.2 mi NNW 8.1 mph - N/A   Clear
8:58 AM 66.0 °F 51.8 °F 60% 30.09 in 6.2 mi NNW 17.3 mph - N/A   Scattered Clouds
9:58 AM 68.5 °F 47.3 °F 47% 30.08 in 6.2 mi NNW 17.3 mph 23.0 mph N/A   Partly Cloudy
10:58 AM 70.3 °F 46.0 °F 42% 30.06 in 6.2 mi NNW 20.7 mph - N/A   Partly Cloudy
11:58 AM 71.4 °F 44.4 °F 38% 30.03 in 6.2 mi NNW 19.6 mph - N/A   Clear
12:58 PM 71.4 °F 45.7 °F 40% 30.01 in 6.2 mi NNW 16.1 mph - N/A   Scattered Clouds
1:58 PM 71.8 °F 43.5 °F 36% 30.00 in 6.2 mi North 17.3 mph - N/A   Mostly Cloudy
2:58 PM 70.7 °F 42.1 °F 35% 30.00 in 6.2 mi NNW 16.1 mph - N/A   Mostly Cloudy
3:58 PM 69.8 °F 42.3 °F 37% 30.01 in 6.2 mi NNW 16.1 mph - N/A   Mostly Cloudy
4:58 PM 67.5 °F 42.4 °F 40% 30.01 in 6.2 mi NNW 11.5 mph - N/A   Mostly Cloudy
5:58 PM 66.2 °F 41.2 °F 40% 30.02 in 6.2 mi NNW 10.4 mph - N/A   Scattered Clouds
6:58 PM 64.6 °F 43.7 °F 47% 30.02 in 6.2 mi NNW 9.2 mph - N/A   Partly Cloudy
7:58 PM 64.4 °F 45.9 °F 51% 30.03 in 6.2 mi North 8.1 mph - N/A   Overcast
8:58 PM 64.2 °F 47.3 °F 54% 30.05 in 6.2 mi North 10.4 mph - N/A   Mostly Cloudy
9:58 PM 63.3 °F 47.7 °F 57% 30.03 in 6.2 mi North 5.8 mph - N/A   Scattered Clouds
10:58 PM 60.6 °F 47.8 °F 63% 30.03 in 6.2 mi WNW 5.8 mph - N/A   Clear
11:58 PM 59.2 °F 48.0 °F 66% 30.03 in 6.2 mi West 4.6 mph - N/A   Clear